Regional Weather Roundup
Issued by NWS

Home | Current Version | Previous Version | Graphics & Text | Print | Product List | Glossary On
Versions: 1 2 3 4 5 6 7 8 9 10 11 12 13 14 15 16 17 18 19 20 21 22 23 24 25 26 27 28 29 30 31 32 33 34 35 36 37 38 39 40 41 42 43 44 45 46 47 48 49 50
000
ASUS43 KDTX 202310
RWRMI
MICHIGAN HOURLY REGIONAL WEATHER ROUNDUP
NATIONAL WEATHER SERVICE DETROIT/PONTIAC MI
700 PM EDT SAT SEP 20 2014

NOTE: "FAIR" INDICATES FEW OR NO CLOUDS BELOW 12,000 FEET WITH NO
SIGNIFICANT WEATHER AND/OR OBSTRUCTION TO VISIBILITY.

MIZ047>049-052>055-059>063-066>070-074>076-081>083-210000-
SOUTHEAST LOWER MICHIGAN

CITY           SKY/WX    TMP DP  RH WIND       PRES   REMARKS
ADRIAN         CLOUDY    76  61  59 SW12G20   29.84R THUNDER
ALMA           CLOUDY    69  64  83 SW10      29.76R
ANN ARBOR      HVY RAIN  68  65  90 W5        29.82S FOG
BAD AXE        HVY RAIN  65  64  96 NW21G31   29.74R
DETROIT CITY   MOCLDY    77  61  57 SW9       29.79F
DETROIT        MOCLDY    72  63  73 S8        29.81S
FLINT          MOCLDY    76  63  64 SW14      29.77R
GROSSE ILE     CLOUDY    75  61  60 SW10      29.80S
HILLSDALE      RAIN      63  63  99 S6        29.88R
HOWELL         LGT RAIN  69  65  86 S12G22    29.81R

CITY           SKY/WX    TMP DP  RH WIND       PRES   REMARKS
JACKSON        TSTM      65  61  87 SW16      29.82S
LAMBERTVILLE   MOCLDY    77  59  53 SW8       29.84R
LANSING        LGT RAIN  73  64  73 W13       29.79R
LAPEER         NOT AVBL
MASON          RAIN      68  65  90 S5        29.80R
MONROE         MOCLDY    75  61  60 SW8       29.81S
MT. CLEMENS    MOCLDY    76  62  62 SW14G24   29.76F
PONTIAC        CLOUDY    72  62  71 S10       29.79S
PORT HOPE        N/A     67  64  90 VRB7G24   29.71S
PORT HURON     MOCLDY    72  63  73 S9        29.77S
TRI CITIES     LGT RAIN  71  66  84 SW7       29.75S
YPSILANTI      RAIN      74  65  73 W14       29.82R
$$
MIZ043>046-050>051-056>058-064>065-071>073-077>080-210000-
SOUTHWEST LOWER MICHIGAN

CITY           SKY/WX    TMP DP  RH WIND       PRES   REMARKS
BATTLE CREEK   CLOUDY    69  66  90 SW9       29.82R
BENTON HARBOR  CLOUDY    70  66  87 S6        29.78F
BIG RAPIDS     CLOUDY    65  65  99 W6        29.72F
COLDWATER      RAIN      65  64  94 S3        29.84S
HOLLAND        CLOUDY    69  66  90 SW6       29.75R
GRAND RAPIDS   RAIN      68  68 100 S8        29.73F FOG
KALAMAZOO      CLOUDY    69  67  93 S5        29.81S
MARSHALL       RAIN      66  65  96 SW7G18    29.82S
MUSKEGON       CLOUDY    68  64  87 SW15      29.73F
$$
MIZ016>042-210000-
NORTHERN LOWER MICHIGAN

CITY           SKY/WX    TMP DP  RH WIND       PRES   REMARKS
ALPENA         CLOUDY    66  63  90 SW7       29.65F
BEAVER ISLAND  CLOUDY    65  62  90 SW5       29.66R
BELLAIRE       DRIZZLE   67  64  89 SW7       29.67S
CADILLAC       CLOUDY    64  64 100 S8        29.71F FOG
CHARLEVOIX     CLOUDY    67  65  91 SW7G16    29.67S
FRANKFORT      CLOUDY    66  61  85 SW8       29.68S
GAYLORD        LGT RAIN  64  62  93 SW10      29.67F FOG
GRAYLING       LGT RAIN  67  65  96 SW10      29.71S
HARBOR SPRINGS RAIN      66  62  87 W9G28     29.65R
HOUGHTON LAKE  LGT RAIN  64  62  93 SW8       29.71F FOG
MANISTEE       CLOUDY    68  63  83 S3        29.70S
OSCODA         RAIN      67  64  92 SW14      29.68S
PELLSTON       TSTM      65  63  93 W6        29.66R
TRAVERSE CITY  CLOUDY    68  64  87 SW7       29.67S
$$
MIZ007>008-015-210000-
EASTERN UPPER MICHIGAN

CITY           SKY/WX    TMP DP  RH WIND       PRES   REMARKS
KINROSS        CLOUDY    64  63  94 W7        29.64R
MACKINAC ISLAN CLOUDY    62  61  97 SW6       29.64S FOG
NEWBERRY       MOCLDY    61  56  83 NW15      29.64S
S. S. MARIE    CLOUDY    62  58  86 W9        29.62R
$$
MIZ004>006-011>014-085-210000-
CENTRAL UPPER MICHIGAN

CITY           SKY/WX    TMP DP  RH WIND       PRES   REMARKS
MANISTIQUE     PTCLDY    65  56  72 NW12G17   29.65R
ESCANABA       CLEAR     72  54  53 NW7       29.65R
MENOMINEE      CLEAR     73  57  56 N5        29.65R
SAWYER-GWINN   MOCLDY    66  55  68 NW12      29.68R
$$
MIZ001>003-009>011-084-210000-
WESTERN UPPER MICHIGAN

CITY           SKY/WX    TMP DP  RH WIND       PRES   REMARKS
IRON MOUNTAIN  CLEAR     69  54  58 NW8       29.68R
HOUGHTON       CLOUDY    56  51  84 NW12      29.70R
COPPER HARBOR    N/A     54  50  86 N9        29.68R
IRONWOOD       CLEAR     61  54  77 NW3       29.70S
$$

ABBREVIATIONS USED IN REMARKS
   TC - TEMPERATURE IN CELSIUS
  WCI - WIND CHILL INDEX
   HX - HEAT INDEX
  VSB - VISIBILITY




USA.gov is the U.S. government's official web portal to all federal, state and local government web resources and services.